St. James, MN

2:58 AM CDT on August 24, 2019 (GMT -0500)
Saint James Municipal

Weather History for KJYG - June, 2019

Change the Weather History Date:

Monday, June 10, 2019

  Actual Average Record
Temperature  
Mean Temperature 66 °F -  
Max Temperature 80 °F 80 °F 95 °F (1973)
Min Temperature 51 °F 56 °F 44 °F (1972)
Growing Degree Days 16 (Base 50)    
Moisture  
Dew Point 42 °F    
Average Humidity 42    
Maximum Humidity 72    
Minimum Humidity 23    
Precipitation  
Precipitation 0.00 in - - ()
Sea Level Pressure  
Sea Level Pressure 30.19 in    
Wind  
Wind Speed 10 mph (West)    
Max Wind Speed 21 mph    
Max Gust Speed 29 mph    
Visibility 10 miles    
Events      
Averages and records for this station are not official NWS values.
T = Trace of Precipitation, MM = Missing Value Source: NWS Daily Summary

Daily Weather History Graph

Daily Weather History Graph

Search for Another Location

Airport or City:

Astronomy

Jun. 10, 2019 Rise Set
Actual Time 5:35 AM CDT 9:00 PM CDT
Civil Twilight 4:59 AM CDT 9:36 PM CDT
Nautical Twilight 4:12 AM CDT 10:23 PM CDT
Astronomical Twilight 3:12 AM CDT 11:23 PM CDT
Moon 1:35 PM CDT (6/10) 2:05 AM CDT (6/10)
Length of Visible Light 16h 37m
Length of Day
15h 25m
First Quarter, 55% of the Moon is Illuminated
Jun 10
First Quarter
Jun 17
Full
Jun 25
Last Quarter
Jul 2
New
Jul 9
First Quarter

Hourly Weather History & Observations

Time (CDT) Temp. Dew Point Humidity Pressure Visibility Wind Dir Wind Speed Gust Speed Precip Events Conditions
12:15 AM 60.8 °F 42.8 °F 52% 30.20 in 10.0 mi WNW 9.2 mph - N/A   Clear
12:16 AM 60.8 °F 42.8 °F 52% 30.20 in 10.0 mi WNW 10.4 mph - N/A   Clear
12:43 AM 59.0 °F 44.6 °F 59% 30.21 in 10.0 mi WNW 8.1 mph - N/A   Clear
12:59 AM 59.0 °F 42.8 °F 55% 30.21 in 10.0 mi WNW 8.1 mph - N/A   Clear
1:15 AM 59.0 °F 42.8 °F 55% 30.21 in 10.0 mi WNW 9.2 mph - N/A   Clear
1:45 AM 57.2 °F 42.8 °F 59% 30.21 in 10.0 mi WNW 6.9 mph - N/A   Clear
2:00 AM 57.2 °F 42.8 °F 59% 30.22 in 10.0 mi WNW 6.9 mph - N/A   Clear
2:16 AM 57.2 °F 42.8 °F 59% 30.22 in 10.0 mi WNW 6.9 mph - N/A   Clear
2:35 AM 55.4 °F 42.8 °F 63% 30.22 in 10.0 mi WNW 5.8 mph - N/A   Clear
3:02 AM 53.6 °F 42.8 °F 67% 30.22 in 10.0 mi West 4.6 mph - N/A   Clear
3:17 AM 51.8 °F 42.8 °F 71% 30.22 in 10.0 mi West 3.5 mph - N/A   Clear
3:35 AM 53.6 °F 42.8 °F 67% 30.22 in 10.0 mi West 9.2 mph - N/A   Clear
4:03 AM 51.8 °F 42.8 °F 71% 30.22 in 10.0 mi Calm Calm - N/A   Clear
4:19 AM 51.8 °F 42.8 °F 71% 30.22 in 10.0 mi West 3.5 mph - N/A   Clear
4:35 AM 53.6 °F 42.8 °F 67% 30.22 in 10.0 mi West 6.9 mph - N/A   Clear
5:05 AM 53.6 °F 42.8 °F 67% 30.23 in 10.0 mi WSW 5.8 mph - N/A   Clear
5:20 AM 51.8 °F 42.8 °F 71% 30.23 in 10.0 mi WSW 4.6 mph - N/A   Clear
5:35 AM 53.6 °F 42.8 °F 67% 30.23 in 10.0 mi WSW 4.6 mph - N/A   Clear
5:55 AM 51.8 °F 42.8 °F 71% 30.23 in 10.0 mi WSW 5.8 mph - N/A   Clear
6:22 AM 53.6 °F 42.8 °F 67% 30.23 in 10.0 mi WSW 5.8 mph - N/A   Clear
6:37 AM 53.6 °F 44.6 °F 72% 30.24 in 10.0 mi WSW 5.8 mph - N/A   Clear
6:55 AM 57.2 °F 42.8 °F 59% 30.24 in 10.0 mi WSW 4.6 mph - N/A   Clear
7:23 AM 60.8 °F 44.6 °F 55% 30.25 in 10.0 mi WSW 4.6 mph - N/A   Clear
7:39 AM 62.6 °F 42.8 °F 48% 30.24 in 10.0 mi WSW 8.1 mph - N/A   Scattered Clouds
7:55 AM 64.4 °F 42.8 °F 45% 30.24 in 10.0 mi West 9.2 mph - N/A   Clear
8:25 AM 66.2 °F 42.8 °F 43% 30.24 in 10.0 mi West 6.9 mph - N/A   Clear
8:40 AM 68.0 °F 42.8 °F 40% 30.24 in 10.0 mi West 10.4 mph - N/A   Clear
8:55 AM 69.8 °F 42.8 °F 38% 30.24 in 10.0 mi West 9.2 mph - N/A   Clear
9:42 AM 71.6 °F 42.8 °F 35% 30.24 in 10.0 mi WNW 12.7 mph - N/A   Clear
9:57 AM 71.6 °F 42.8 °F 35% 30.23 in 10.0 mi WNW 15.0 mph 18.4 mph N/A   Clear
10:15 AM 71.6 °F 42.8 °F 35% 30.23 in 10.0 mi NW 15.0 mph 18.4 mph N/A   Clear
10:43 AM 73.4 °F 42.8 °F 33% 30.23 in 10.0 mi NW 16.1 mph 21.9 mph N/A   Clear
10:58 AM 73.4 °F 42.8 °F 33% 30.23 in 10.0 mi WNW 12.7 mph 21.9 mph N/A   Clear
11:15 AM 73.4 °F 42.8 °F 33% 30.23 in 10.0 mi West 19.6 mph 24.2 mph N/A   Clear
11:16 AM 73.4 °F 42.8 °F 33% 30.23 in 10.0 mi West 18.4 mph 24.2 mph N/A   Clear
11:44 AM 75.2 °F 41.0 °F 29% 30.22 in 10.0 mi WNW 19.6 mph - N/A   Clear
12:00 PM 75.2 °F 39.2 °F 27% 30.22 in 10.0 mi NW 16.1 mph 23.0 mph N/A   Clear
12:15 PM 75.2 °F 41.0 °F 29% 30.22 in 10.0 mi West 15.0 mph 19.6 mph N/A   Clear
12:35 PM 77.0 °F 39.2 °F 26% 30.22 in 10.0 mi WNW 15.0 mph 21.9 mph N/A   Clear
1:01 PM 77.0 °F 39.2 °F 26% 30.21 in 10.0 mi WNW 17.3 mph 20.7 mph N/A   Clear
1:17 PM 77.0 °F 39.2 °F 26% 30.20 in 10.0 mi NW 17.3 mph 21.9 mph N/A   Clear
1:35 PM 78.8 °F 42.8 °F 28% 30.20 in 10.0 mi West 9.2 mph 24.2 mph N/A   Clear
2:03 PM 78.8 °F 39.2 °F 24% 30.19 in 10.0 mi West 11.5 mph 25.3 mph N/A   Clear
2:18 PM 78.8 °F 39.2 °F 24% 30.18 in - WNW 11.5 mph 27.6 mph N/A   Clear
2:35 PM 78.8 °F 39.2 °F 24% 30.18 in 10.0 mi West 11.5 mph 19.6 mph N/A   Scattered Clouds
2:36 PM 78.8 °F 39.2 °F 24% 30.18 in - West 13.8 mph 19.6 mph N/A   Scattered Clouds
3:04 PM 80.6 °F 42.8 °F 26% 30.17 in - WNW 20.7 mph 26.5 mph N/A   Clear
3:20 PM 80.6 °F 42.8 °F 26% 30.17 in 10.0 mi West 17.3 mph 23.0 mph N/A   Clear
3:35 PM 78.8 °F 41.0 °F 26% 30.17 in - WNW 12.7 mph 26.5 mph N/A   Clear
3:54 PM 78.8 °F 41.0 °F 26% 30.16 in - West 13.8 mph 24.2 mph N/A   Clear
4:06 PM 80.6 °F 41.0 °F 24% 30.16 in - WNW 15.0 mph 24.2 mph N/A   Scattered Clouds
4:21 PM 80.6 °F 41.0 °F 24% 30.15 in 10.0 mi WNW 17.3 mph 26.5 mph N/A   Scattered Clouds
4:36 PM 80.6 °F 41.0 °F 24% 30.15 in 10.0 mi WNW 16.1 mph 25.3 mph N/A   Clear
4:55 PM 80.6 °F 39.2 °F 23% 30.14 in 10.0 mi WNW 17.3 mph 24.2 mph N/A   Clear
5:23 PM 80.6 °F 39.2 °F 23% 30.14 in 10.0 mi West 17.3 mph 23.0 mph N/A   Clear
5:45 PM 78.8 °F 39.2 °F 24% 30.13 in - NW 15.0 mph - N/A   Clear
6:00 PM 78.8 °F 39.2 °F 24% 30.13 in - WNW 15.0 mph - N/A   Scattered Clouds
6:16 PM 77.0 °F 39.2 °F 26% 30.13 in 10.0 mi WNW 13.8 mph 23.0 mph N/A   Scattered Clouds
6:35 PM 75.2 °F 42.8 °F 31% 30.13 in 10.0 mi WSW 19.6 mph 28.8 mph N/A   Clear
7:02 PM 77.0 °F 39.2 °F 26% 30.14 in 10.0 mi West 13.8 mph 25.3 mph N/A   Clear
7:17 PM 77.0 °F 41.0 °F 28% 30.13 in 10.0 mi West 15.0 mph 20.7 mph N/A   Clear
7:35 PM 73.4 °F 42.8 °F 33% 30.14 in 10.0 mi West 11.5 mph 19.6 mph N/A   Clear
7:36 PM 73.4 °F 42.8 °F 33% 30.14 in 10.0 mi West 12.7 mph 19.6 mph N/A   Clear
8:04 PM 73.4 °F 42.8 °F 33% 30.15 in 10.0 mi WNW 11.5 mph - N/A   Scattered Clouds
8:19 PM 73.4 °F 41.0 °F 31% 30.15 in 10.0 mi WNW 16.1 mph 27.6 mph N/A   Scattered Clouds
8:35 PM 73.4 °F 39.2 °F 29% 30.13 in 10.0 mi West 13.8 mph - N/A   Scattered Clouds
9:05 PM 69.8 °F 42.8 °F 38% 30.15 in 10.0 mi West 8.1 mph - N/A   Clear
9:20 PM 69.8 °F 42.8 °F 38% 30.14 in 10.0 mi West 5.8 mph - N/A   Clear
9:36 PM 69.8 °F 44.6 °F 40% 30.13 in 10.0 mi Calm Calm - N/A   Clear
9:55 PM 68.0 °F 44.6 °F 43% 30.14 in 10.0 mi SW 4.6 mph - N/A   Clear
10:22 PM 66.2 °F 44.6 °F 46% 30.14 in 10.0 mi SW 4.6 mph - N/A   Clear
10:37 PM 66.2 °F 46.4 °F 49% 30.14 in 10.0 mi SSW 6.9 mph - N/A   Clear
10:55 PM 66.2 °F 46.4 °F 49% 30.14 in 10.0 mi SW 6.9 mph - N/A   Clear
10:56 PM 66.2 °F 46.4 °F 49% 30.14 in 10.0 mi SW 6.9 mph - N/A   Clear
11:23 PM 64.4 °F 44.6 °F 49% 30.13 in 10.0 mi SSW 3.5 mph - N/A   Clear
11:39 PM 62.6 °F 46.4 °F 55% 30.12 in 10.0 mi SSW 3.5 mph - N/A   Clear
11:55 PM 64.4 °F 46.4 °F 52% 30.12 in 10.0 mi SSW 3.5 mph - N/A   Clear